Station Historical Data
Daily Summary for October 20, 2011 Units:  English    Metric   Both
« Previous Day
Next Day »
Daily Weekly Monthly Yearly Custom
  High: Low: Average:
Temperature: 56.7 °F 40.4 °F 47.6 °F
Dew Point: 42.2 °F 37.3 °F 39.3 °F
Humidity: 92% 50% 74%
Wind Speed: 18.0mph 0.0mph 5.3mph
Wind Gust: 18.0mph - -
Wind- - WSW
Pressure: 30.06 in 29.78 in -
Precipitation: 0.01 in    
Historical Graphs
 
 
Tabular Data for October 20, 2011
Time Temperature Dew Point Pressure Wind Wind Speed Wind Gust Humidity Rainfall Rate (Hourly) Conditions
00:00 44.7 °F 42.2 °F 29.78 in West 4.0 mph 10.0 mph 91% 0.00 in
00:05 44.7 °F 42.2 °F 29.78 in West 7.0 mph 9.0 mph 91% 0.00 in
00:10 44.7 °F 42.0 °F 29.78 in West 5.0 mph 12.0 mph 90% 0.00 in
00:15 44.7 °F 42.0 °F 29.78 in West 5.0 mph 14.0 mph 90% 0.00 in
00:21 44.7 °F 42.0 °F 29.78 in West 6.0 mph 9.0 mph 90% 0.00 in
00:26 44.7 °F 42.0 °F 29.78 in SSW 9.0 mph 12.0 mph 90% 0.00 in
00:31 44.7 °F 42.0 °F 29.79 in West 6.0 mph 10.0 mph 90% 0.00 in
00:36 44.7 °F 42.0 °F 29.78 in West 10.0 mph 10.0 mph 90% 0.00 in
00:41 44.7 °F 41.7 °F 29.79 in WSW 5.0 mph 11.0 mph 89% 0.00 in
00:46 44.7 °F 41.7 °F 29.79 in SW 8.0 mph 10.0 mph 89% 0.00 in
00:51 44.7 °F 41.7 °F 29.79 in West 7.0 mph 13.0 mph 89% 0.00 in
00:56 44.6 °F 41.3 °F 29.79 in West 4.0 mph 9.0 mph 88% 0.00 in
01:01 44.5 °F 41.2 °F 29.79 in West 5.0 mph 14.0 mph 88% 0.00 in
01:06 44.5 °F 41.2 °F 29.80 in NW 7.0 mph 11.0 mph 88% 0.00 in
01:11 43.9 °F 40.3 °F 29.80 in WNW 11.0 mph 17.0 mph 87% 0.00 in
01:16 43.3 °F 40.0 °F 29.80 in WNW 6.0 mph 12.0 mph 88% 0.00 in
01:21 42.9 °F 40.2 °F 29.80 in WNW 7.0 mph 9.0 mph 90% 0.00 in
01:26 42.7 °F 40.3 °F 29.80 in WNW 5.0 mph 10.0 mph 91% 0.00 in
01:31 42.7 °F 40.3 °F 29.80 in NW 6.0 mph 9.0 mph 91% 0.00 in
01:36 42.9 °F 40.7 °F 29.80 in West 3.0 mph 8.0 mph 92% 0.00 in
01:41 43.1 °F 40.7 °F 29.80 in WSW 5.0 mph 7.0 mph 91% 0.00 in
01:46 43.3 °F 40.8 °F 29.80 in WSW 4.0 mph 7.0 mph 91% 0.00 in
01:51 43.4 °F 40.7 °F 29.80 in West 4.0 mph 11.0 mph 90% 0.00 in
01:56 43.5 °F 40.8 °F 29.80 in West 3.0 mph 8.0 mph 90% 0.00 in
02:01 43.7 °F 40.4 °F 29.80 in West 7.0 mph 10.0 mph 88% 0.00 in
02:06 43.7 °F 40.4 °F 29.80 in West 5.0 mph 11.0 mph 88% 0.00 in
02:11 43.7 °F 40.1 °F 29.81 in West 6.0 mph 12.0 mph 87% 0.00 in
02:16 43.7 °F 40.1 °F 29.81 in WSW 3.0 mph 8.0 mph 87% 0.00 in
02:21 43.7 °F 40.4 °F 29.81 in SW 10.0 mph 10.0 mph 88% 0.00 in
02:26 43.8 °F 39.9 °F 29.81 in WSW 7.0 mph 12.0 mph 86% 0.00 in
02:31 43.8 °F 40.2 °F 29.82 in West 4.0 mph 12.0 mph 87% 0.00 in
02:36 43.8 °F 39.9 °F 29.81 in West 10.0 mph 11.0 mph 86% 0.00 in
02:41 43.7 °F 40.1 °F 29.81 in NW 3.0 mph 9.0 mph 87% 0.00 in
02:46 43.7 °F 39.8 °F 29.82 in West 6.0 mph 11.0 mph 86% 0.00 in
02:51 43.6 °F 40.0 °F 29.82 in WSW 6.0 mph 9.0 mph 87% 0.00 in
02:56 43.6 °F 39.7 °F 29.82 in WSW 5.0 mph 11.0 mph 86% 0.00 in
03:01 43.6 °F 39.7 °F 29.82 in SW 5.0 mph 10.0 mph 86% 0.00 in
03:06 43.5 °F 39.6 °F 29.82 in West 8.0 mph 10.0 mph 86% 0.00 in
03:11 43.6 °F 39.7 °F 29.82 in WSW 5.0 mph 9.0 mph 86% 0.00 in
03:16 43.6 °F 39.7 °F 29.82 in WSW 8.0 mph 10.0 mph 86% 0.00 in
03:21 43.5 °F 39.6 °F 29.82 in West 6.0 mph 8.0 mph 86% 0.00 in
03:26 43.5 °F 39.6 °F 29.82 in WSW 4.0 mph 12.0 mph 86% 0.00 in
03:31 43.5 °F 39.6 °F 29.82 in West 5.0 mph 8.0 mph 86% 0.00 in
03:36 43.5 °F 39.6 °F 29.82 in West 4.0 mph 10.0 mph 86% 0.00 in
03:41 43.5 °F 39.6 °F 29.82 in WNW 5.0 mph 9.0 mph 86% 0.00 in
03:46 43.5 °F 39.3 °F 29.82 in WSW 10.0 mph 11.0 mph 85% 0.00 in
03:51 43.4 °F 39.5 °F 29.82 in West 3.0 mph 7.0 mph 86% 0.00 in
03:56 43.3 °F 39.4 °F 29.82 in WNW 4.0 mph 10.0 mph 86% 0.00 in
04:01 43.4 °F 39.5 °F 29.82 in West 7.0 mph 9.0 mph 86% 0.00 in
04:07 43.4 °F 39.5 °F 29.82 in West 5.0 mph 10.0 mph 86% 0.00 in
04:12 43.3 °F 39.4 °F 29.82 in West 7.0 mph 11.0 mph 86% 0.00 in
04:17 43.3 °F 39.4 °F 29.83 in WSW 8.0 mph 11.0 mph 86% 0.00 in
04:22 43.3 °F 39.4 °F 29.83 in West 6.0 mph 6.0 mph 86% 0.00 in
04:27 43.3 °F 39.7 °F 29.82 in WSW 7.0 mph 10.0 mph 87% 0.00 in
04:32 43.3 °F 39.4 °F 29.83 in West 4.0 mph 11.0 mph 86% 0.00 in
04:37 43.3 °F 39.4 °F 29.83 in West 3.0 mph 10.0 mph 86% 0.00 in
04:42 43.3 °F 39.4 °F 29.83 in WNW 6.0 mph 12.0 mph 86% 0.00 in
04:47 43.3 °F 39.4 °F 29.83 in West 5.0 mph 9.0 mph 86% 0.00 in
04:52 43.3 °F 39.1 °F 29.83 in West 6.0 mph 9.0 mph 85% 0.00 in
04:57 43.3 °F 39.4 °F 29.83 in West 9.0 mph 11.0 mph 86% 0.00 in
05:02 43.3 °F 39.4 °F 29.83 in WSW 4.0 mph 10.0 mph 86% 0.00 in
05:07 43.3 °F 39.7 °F 29.83 in WSW 7.0 mph 8.0 mph 87% 0.00 in
05:12 43.2 °F 39.3 °F 29.83 in West 4.0 mph 10.0 mph 86% 0.00 in
05:17 43.2 °F 39.3 °F 29.83 in West 5.0 mph 10.0 mph 86% 0.00 in
05:22 43.2 °F 39.3 °F 29.83 in West 4.0 mph 9.0 mph 86% 0.00 in
05:27 43.2 °F 39.3 °F 29.83 in West 4.0 mph 10.0 mph 86% 0.00 in
05:32 43.1 °F 39.2 °F 29.83 in SW 5.0 mph 10.0 mph 86% 0.00 in
05:37 43.1 °F 39.5 °F 29.83 in WSW 9.0 mph 9.0 mph 87% 0.00 in
05:42 43.1 °F 39.5 °F 29.84 in West 5.0 mph 8.0 mph 87% 0.00 in
05:47 43.1 °F 39.5 °F 29.84 in SW 10.0 mph 12.0 mph 87% 0.00 in
05:52 43.0 °F 39.4 °F 29.83 in SW 6.0 mph 8.0 mph 87% 0.00 in
05:57 43.1 °F 39.5 °F 29.84 in West 3.0 mph 10.0 mph 87% 0.00 in
06:02 43.0 °F 39.4 °F 29.84 in West 7.0 mph 7.0 mph 87% 0.00 in
06:07 43.0 °F 39.4 °F 29.83 in West 8.0 mph 8.0 mph 87% 0.00 in
06:12 43.0 °F 39.4 °F 29.84 in West 6.0 mph 8.0 mph 87% 0.00 in
06:17 42.9 °F 39.3 °F 29.83 in WNW 5.0 mph 9.0 mph 87% 0.00 in
06:22 42.9 °F 39.0 °F 29.83 in West 6.0 mph 15.0 mph 86% 0.00 in
06:27 42.9 °F 39.3 °F 29.84 in WSW 4.0 mph 7.0 mph 87% 0.00 in
06:32 42.8 °F 39.2 °F 29.84 in SW 7.0 mph 10.0 mph 87% 0.00 in
06:37 42.7 °F 39.1 °F 29.84 in SW 7.0 mph 7.0 mph 87% 0.00 in
06:42 42.6 °F 39.0 °F 29.84 in WSW 7.0 mph 11.0 mph 87% 0.00 in
06:47 42.5 °F 38.9 °F 29.84 in West 3.0 mph 9.0 mph 87% 0.00 in
06:52 42.4 °F 38.8 °F 29.84 in WSW 6.0 mph 10.0 mph 87% 0.00 in
06:57 42.2 °F 38.6 °F 29.84 in WSW 6.0 mph 9.0 mph 87% 0.00 in
07:02 42.0 °F 38.7 °F 29.84 in WSW 5.0 mph 7.0 mph 88% 0.00 in
07:07 41.9 °F 38.6 °F 29.84 in WSW 3.0 mph 9.0 mph 88% 0.00 in
07:12 41.8 °F 38.5 °F 29.84 in SW 7.0 mph 8.0 mph 88% 0.00 in
07:17 41.6 °F 38.6 °F 29.84 in WSW 5.0 mph 7.0 mph 89% 0.00 in
07:22 41.5 °F 38.5 °F 29.85 in WSW 3.0 mph 10.0 mph 89% 0.00 in
07:27 41.4 °F 38.4 °F 29.85 in WSW 4.0 mph 8.0 mph 89% 0.00 in
07:32 41.3 °F 38.3 °F 29.85 in WSW 6.0 mph 8.0 mph 89% 0.00 in
07:37 41.2 °F 38.2 °F 29.85 in WSW 3.0 mph 6.0 mph 89% 0.00 in
07:42 40.9 °F 38.2 °F 29.85 in West 1.0 mph 5.0 mph 90% 0.00 in
07:47 40.7 °F 38.0 °F 29.86 in WSW 5.0 mph 5.0 mph 90% 0.00 in
07:52 40.8 °F 38.1 °F 29.86 in West 3.0 mph 7.0 mph 90% 0.00 in
07:57 40.7 °F 38.3 °F 29.86 in WSW 5.0 mph 6.0 mph 91% 0.00 in
08:02 40.6 °F 38.2 °F 29.86 in WSW 2.0 mph 4.0 mph 91% 0.00 in
08:07 40.5 °F 38.1 °F 29.87 in WSW 4.0 mph 6.0 mph 91% 0.00 in
08:12 40.4 °F 38.0 °F 29.87 in West 3.0 mph 4.0 mph 91% 0.00 in
08:18 40.4 °F 38.0 °F 29.87 in West 5.0 mph 8.0 mph 91% 0.00 in
08:23 40.4 °F 38.0 °F 29.87 in WSW 5.0 mph 8.0 mph 91% 0.00 in
08:28 40.6 °F 38.2 °F 29.88 in WSW 6.0 mph 10.0 mph 91% 0.00 in
08:33 40.8 °F 38.4 °F 29.88 in West 3.0 mph 8.0 mph 91% 0.00 in
08:38 40.9 °F 38.5 °F 29.88 in WSW 4.0 mph 6.0 mph 91% 0.00 in
08:43 41.1 °F 38.7 °F 29.88 in SW 6.0 mph 7.0 mph 91% 0.00 in
08:48 41.3 °F 38.6 °F 29.89 in WSW 4.0 mph 7.0 mph 90% 0.00 in
08:53 41.5 °F 38.8 °F 29.89 in SW 5.0 mph 8.0 mph 90% 0.00 in
08:58 41.7 °F 39.0 °F 29.89 in SW 5.0 mph 8.0 mph 90% 0.00 in
09:03 41.9 °F 39.2 °F 29.90 in WSW 6.0 mph 8.0 mph 90% 0.00 in
09:08 42.2 °F 39.2 °F 29.90 in SW 9.0 mph 9.0 mph 89% 0.00 in
09:13 42.4 °F 39.1 °F 29.90 in SW 4.0 mph 10.0 mph 88% 0.00 in
09:18 42.7 °F 39.1 °F 29.90 in West 8.0 mph 10.0 mph 87% 0.00 in
09:23 42.9 °F 39.6 °F 29.91 in WSW 5.0 mph 9.0 mph 88% 0.00 in
09:28 43.2 °F 39.6 °F 29.91 in WSW 4.0 mph 9.0 mph 87% 0.00 in
09:33 43.4 °F 39.5 °F 29.91 in SW 10.0 mph 10.0 mph 86% 0.00 in
09:38 43.7 °F 39.8 °F 29.91 in NW 2.0 mph 11.0 mph 86% 0.00 in
09:43 44.2 °F 39.7 °F 29.92 in WNW 7.0 mph 11.0 mph 84% 0.00 in
09:49 44.3 °F 39.8 °F 29.92 in WSW 8.0 mph 11.0 mph 84% 0.00 in
09:54 44.5 °F 39.7 °F 29.92 in WSW 8.0 mph 12.0 mph 83% 0.00 in
09:59 44.8 °F 40.0 °F 29.92 in West 10.0 mph 11.0 mph 83% 0.00 in
10:04 45.1 °F 39.9 °F 29.92 in WNW 6.0 mph 12.0 mph 82% 0.00 in
10:09 45.5 °F 40.0 °F 29.92 in WSW 9.0 mph 11.0 mph 81% 0.00 in
10:14 46.0 °F 40.2 °F 29.92 in West 3.0 mph 8.0 mph 80% 0.00 in
10:19 46.3 °F 39.5 °F 29.92 in NW 4.0 mph 11.0 mph 77% 0.00 in
10:24 46.7 °F 40.2 °F 29.93 in WNW 7.0 mph 12.0 mph 78% 0.00 in
10:29 46.9 °F 40.1 °F 29.93 in West 8.0 mph 12.0 mph 77% 0.00 in
10:34 47.1 °F 40.6 °F 29.93 in West 8.0 mph 12.0 mph 78% 0.00 in
10:39 47.4 °F 40.2 °F 29.93 in WNW 10.0 mph 10.0 mph 76% 0.00 in
10:44 47.5 °F 40.0 °F 29.93 in WSW 5.0 mph 11.0 mph 75% 0.00 in
10:49 47.8 °F 39.9 °F 29.94 in West 10.0 mph 13.0 mph 74% 0.00 in
10:54 47.9 °F 39.7 °F 29.94 in West 7.0 mph 10.0 mph 73% 0.00 in
10:59 48.1 °F 40.2 °F 29.94 in West 3.0 mph 12.0 mph 74% 0.00 in
11:04 48.5 °F 40.6 °F 29.94 in West 3.0 mph 10.0 mph 74% 0.00 in
11:09 48.6 °F 40.3 °F 29.94 in WSW 7.0 mph 8.0 mph 73% 0.00 in
11:14 48.8 °F 40.5 °F 29.94 in WSW 7.0 mph 10.0 mph 73% 0.00 in
11:19 49.2 °F 40.6 °F 29.94 in NW 4.0 mph 10.0 mph 72% 0.00 in
11:24 49.1 °F 40.1 °F 29.94 in West 3.0 mph 11.0 mph 71% 0.00 in
11:29 49.2 °F 39.5 °F 29.94 in West 7.0 mph 12.0 mph 69% 0.00 in
11:34 49.6 °F 40.2 °F 29.94 in West 5.0 mph 11.0 mph 70% 0.00 in
11:39 50.0 °F 40.6 °F 29.94 in West 7.0 mph 11.0 mph 70% 0.00 in
11:44 49.8 °F 38.9 °F 29.94 in West 5.0 mph 14.0 mph 66% 0.00 in
11:49 50.0 °F 39.5 °F 29.93 in WNW 8.0 mph 15.0 mph 67% 0.00 in
11:54 50.4 °F 39.9 °F 29.94 in SW 6.0 mph 14.0 mph 67% 0.00 in
11:59 50.6 °F 39.7 °F 29.94 in West 6.0 mph 13.0 mph 66% 0.00 in
12:04 51.0 °F 40.4 °F 29.94 in WSW 5.0 mph 9.0 mph 67% 0.00 in
12:09 51.5 °F 39.7 °F 29.94 in West 10.0 mph 16.0 mph 64% 0.00 in
12:14 51.8 °F 40.8 °F 29.94 in West 7.0 mph 12.0 mph 66% 0.00 in
12:19 51.7 °F 39.5 °F 29.94 in WNW 13.0 mph 15.0 mph 63% 0.00 in
12:24 51.4 °F 39.7 °F 29.94 in WNW 5.0 mph 15.0 mph 64% 0.00 in
12:29 51.0 °F 38.5 °F 29.94 in WNW 9.0 mph 11.0 mph 62% 0.00 in
12:34 51.7 °F 39.9 °F 29.95 in WNW 8.0 mph 10.0 mph 64% 0.00 in
12:39 51.5 °F 38.9 °F 29.95 in West 8.0 mph 14.0 mph 62% 0.00 in
12:44 51.4 °F 39.2 °F 29.95 in WSW 5.0 mph 11.0 mph 63% 0.00 in
12:49 51.4 °F 38.4 °F 29.95 in SW 10.0 mph 13.0 mph 61% 0.00 in
12:54 52.8 °F 40.2 °F 29.94 in West 11.0 mph 14.0 mph 62% 0.00 in
12:59 52.9 °F 38.5 °F 29.94 in West 5.0 mph 16.0 mph 58% 0.00 in
13:04 53.4 °F 38.6 °F 29.94 in WSW 12.0 mph 13.0 mph 57% 0.00 in
13:09 54.1 °F 40.5 °F 29.94 in WNW 7.0 mph 14.0 mph 60% 0.00 in
13:14 53.9 °F 38.1 °F 29.94 in WSW 7.0 mph 14.0 mph 55% 0.00 in
13:20 52.7 °F 37.9 °F 29.94 in West 12.0 mph 15.0 mph 57% 0.00 in
13:25 52.1 °F 38.7 °F 29.94 in West 3.0 mph 11.0 mph 60% 0.00 in
13:30 52.9 °F 38.5 °F 29.94 in West 4.0 mph 11.0 mph 58% 0.00 in
13:35 53.0 °F 38.2 °F 29.94 in WSW 2.0 mph 17.0 mph 57% 0.00 in
13:40 53.9 °F 40.3 °F 29.93 in WSW 4.0 mph 17.0 mph 60% 0.00 in
13:45 54.6 °F 39.7 °F 29.93 in WSW 11.0 mph 16.0 mph 57% 0.00 in
13:50 53.8 °F 38.0 °F 29.93 in SW 9.0 mph 16.0 mph 55% 0.00 in
13:55 53.4 °F 39.5 °F 29.93 in WNW 5.0 mph 11.0 mph 59% 0.00 in
14:00 54.3 °F 39.8 °F 29.93 in South 8.0 mph 11.0 mph 58% 0.00 in
14:05 54.6 °F 39.7 °F 29.93 in WSW 14.0 mph 18.0 mph 57% 0.00 in
14:10 54.5 °F 38.7 °F 29.93 in SW 11.0 mph 13.0 mph 55% 0.00 in
14:15 54.7 °F 38.4 °F 29.93 in West 11.0 mph 17.0 mph 54% 0.00 in
14:20 54.9 °F 39.5 °F 29.93 in West 6.0 mph 18.0 mph 56% 0.00 in
14:25 55.1 °F 39.7 °F 29.93 in WSW 8.0 mph 13.0 mph 56% 0.00 in
14:30 55.1 °F 38.3 °F 29.93 in WSW 11.0 mph 12.0 mph 53% 0.00 in
14:35 55.0 °F 38.7 °F 29.93 in West 9.0 mph 15.0 mph 54% 0.00 in
14:40 55.3 °F 39.0 °F 29.93 in SW 6.0 mph 13.0 mph 54% 0.00 in
14:45 55.7 °F 39.3 °F 29.93 in NW 10.0 mph 18.0 mph 54% 0.00 in
14:50 55.5 °F 38.7 °F 29.93 in West 8.0 mph 16.0 mph 53% 0.00 in
14:55 56.2 °F 38.8 °F 29.93 in WSW 7.0 mph 15.0 mph 52% 0.00 in
15:00 56.3 °F 38.9 °F 29.93 in SW 17.0 mph 17.0 mph 52% 0.00 in
15:05 56.7 °F 39.8 °F 29.93 in SW 8.0 mph 13.0 mph 53% 0.00 in
15:10 56.3 °F 37.9 °F 29.93 in WSW 5.0 mph 15.0 mph 50% 0.00 in
15:15 55.6 °F 38.3 °F 29.93 in WSW 9.0 mph 12.0 mph 52% 0.00 in
15:20 55.8 °F 38.5 °F 29.93 in WNW 5.0 mph 14.0 mph 52% 0.00 in
15:25 56.2 °F 39.3 °F 29.93 in NW 6.0 mph 14.0 mph 53% 0.00 in
15:30 55.9 °F 38.5 °F 29.93 in WSW 8.0 mph 18.0 mph 52% 0.00 in
15:35 55.9 °F 38.5 °F 29.92 in WSW 10.0 mph 17.0 mph 52% 0.00 in
15:40 55.9 °F 39.0 °F 29.93 in WSW 9.0 mph 15.0 mph 53% 0.00 in
15:45 55.9 °F 39.0 °F 29.93 in SSW 7.0 mph 17.0 mph 53% 0.00 in
15:50 56.0 °F 38.6 °F 29.93 in West 13.0 mph 14.0 mph 52% 0.00 in
15:55 55.8 °F 38.9 °F 29.93 in WSW 8.0 mph 13.0 mph 53% 0.00 in
16:00 56.0 °F 38.6 °F 29.93 in West 13.0 mph 13.0 mph 52% 0.00 in
16:05 56.2 °F 39.3 °F 29.93 in WSW 18.0 mph 18.0 mph 53% 0.00 in
16:10 56.3 °F 38.9 °F 29.93 in SW 6.0 mph 11.0 mph 52% 0.00 in
16:15 56.1 °F 37.7 °F 29.93 in West 14.0 mph 16.0 mph 50% 0.00 in
16:21 56.3 °F 38.4 °F 29.94 in West 10.0 mph 10.0 mph 51% 0.00 in
16:26 56.0 °F 38.6 °F 29.93 in SW 9.0 mph 14.0 mph 52% 0.00 in
16:31 56.2 °F 38.8 °F 29.93 in SW 9.0 mph 12.0 mph 52% 0.00 in
16:36 55.8 °F 38.0 °F 29.93 in NW 10.0 mph 13.0 mph 51% 0.00 in
16:41 56.3 °F 38.9 °F 29.94 in WSW 10.0 mph 10.0 mph 52% 0.00 in
16:46 56.4 °F 38.5 °F 29.94 in SW 8.0 mph 12.0 mph 51% 0.00 in
16:51 56.4 °F 38.0 °F 29.94 in WSW 8.0 mph 12.0 mph 50% 0.00 in
16:56 56.3 °F 38.4 °F 29.94 in WSW 8.0 mph 12.0 mph 51% 0.00 in
17:01 56.2 °F 38.3 °F 29.94 in West 7.0 mph 12.0 mph 51% 0.00 in
17:06 56.3 °F 38.4 °F 29.94 in WNW 7.0 mph 8.0 mph 51% 0.00 in
17:11 56.3 °F 38.4 °F 29.94 in WSW 4.0 mph 12.0 mph 51% 0.00 in
17:16 56.4 °F 38.5 °F 29.94 in WSW 11.0 mph 13.0 mph 51% 0.00 in
17:21 56.5 °F 39.1 °F 29.94 in WSW 9.0 mph 10.0 mph 52% 0.00 in
17:26 56.7 °F 39.3 °F 29.94 in WNW 6.0 mph 12.0 mph 52% 0.00 in
17:31 56.4 °F 38.5 °F 29.94 in West 4.0 mph 11.0 mph 51% 0.00 in
17:36 56.3 °F 38.4 °F 29.94 in WSW 10.0 mph 13.0 mph 51% 0.00 in
17:41 56.3 °F 38.4 °F 29.94 in West 9.0 mph 12.0 mph 51% 0.00 in
17:46 56.1 °F 38.2 °F 29.94 in SW 6.0 mph 12.0 mph 51% 0.00 in
17:51 56.0 °F 38.6 °F 29.94 in SW 7.0 mph 11.0 mph 52% 0.00 in
17:56 56.0 °F 38.2 °F 29.94 in WSW 15.0 mph 15.0 mph 51% 0.00 in
18:01 55.9 °F 38.0 °F 29.95 in WSW 8.0 mph 11.0 mph 51% 0.00 in
18:06 55.8 °F 38.5 °F 29.95 in West 8.0 mph 11.0 mph 52% 0.00 in
18:11 55.8 °F 38.5 °F 29.95 in WSW 11.0 mph 11.0 mph 52% 0.00 in
18:16 55.7 °F 38.4 °F 29.95 in West 7.0 mph 10.0 mph 52% 0.00 in
18:21 55.5 °F 38.7 °F 29.95 in West 9.0 mph 9.0 mph 53% 0.00 in
18:26 55.4 °F 38.6 °F 29.95 in WSW 3.0 mph 11.0 mph 53% 0.00 in
18:31 55.3 °F 39.0 °F 29.95 in West 2.0 mph 7.0 mph 54% 0.00 in
18:36 55.1 °F 39.2 °F 29.96 in West 4.0 mph 9.0 mph 55% 0.00 in
18:41 54.9 °F 39.0 °F 29.96 in West 2.0 mph 5.0 mph 55% 0.00 in
18:46 54.6 °F 38.8 °F 29.96 in SW 5.0 mph 6.0 mph 55% 0.00 in
18:51 54.2 °F 38.9 °F 29.97 in SW 4.0 mph 6.0 mph 56% 0.00 in
18:56 53.6 °F 38.8 °F 29.97 in SW 2.0 mph 6.0 mph 57% 0.00 in
19:01 53.0 °F 38.6 °F 29.97 in SW 2.0 mph 6.0 mph 58% 0.00 in
19:06 52.6 °F 39.1 °F 29.97 in SW 5.0 mph 6.0 mph 60% 0.00 in
19:12 52.2 °F 38.8 °F 29.97 in SW 3.0 mph 6.0 mph 60% 0.00 in
19:17 51.8 °F 38.8 °F 29.97 in SW 2.0 mph 4.0 mph 61% 0.00 in
19:22 51.5 °F 38.9 °F 29.98 in SW 4.0 mph 4.0 mph 62% 0.00 in
19:27 51.2 °F 38.6 °F 29.98 in WSW 3.0 mph 4.0 mph 62% 0.00 in
19:32 51.0 °F 38.9 °F 29.98 in SW 3.0 mph 3.0 mph 63% 0.00 in
19:37 50.7 °F 39.0 °F 29.98 in WSW 1.0 mph 3.0 mph 64% 0.00 in
19:42 50.3 °F 39.0 °F 29.98 in WSW 1.0 mph 2.0 mph 65% 0.00 in
19:47 50.0 °F 39.1 °F 29.99 in WSW 2.0 mph 2.0 mph 66% 0.00 in
19:52 49.8 °F 38.9 °F 29.99 in SSW 1.0 mph 2.0 mph 66% 0.00 in
19:57 49.2 °F 38.7 °F 29.99 in Calm   1.0 mph 67% 0.00 in
20:02 48.8 °F 38.7 °F 29.99 in SW 1.0 mph 2.0 mph 68% 0.00 in
20:07 48.6 °F 38.5 °F 29.99 in SSW 1.0 mph 2.0 mph 68% 0.00 in
20:12 48.3 °F 38.6 °F 30.00 in SW 1.0 mph 1.0 mph 69% 0.00 in
20:17 48.2 °F 38.5 °F 30.00 in SW 1.0 mph 2.0 mph 69% 0.00 in
20:22 48.0 °F 38.7 °F 30.00 in Calm   1.0 mph 70% 0.00 in
20:27 47.7 °F 38.4 °F 30.00 in Calm   1.0 mph 70% 0.00 in
20:32 47.5 °F 38.6 °F 30.00 in SW 1.0 mph 2.0 mph 71% 0.00 in
20:37 47.4 °F 38.5 °F 30.00 in Calm   1.0 mph 71% 0.00 in
20:42 47.3 °F 38.7 °F 30.00 in Calm   1.0 mph 72% 0.00 in
20:47 47.3 °F 38.7 °F 30.01 in Calm   1.0 mph 72% 0.00 in
20:52 47.2 °F 38.7 °F 30.01 in Calm   1.0 mph 72% 0.00 in
20:57 47.1 °F 38.5 °F 30.01 in Calm   1.0 mph 72% 0.00 in
21:02 47.2 °F 38.7 °F 30.01 in WSW 1.0 mph 2.0 mph 72% 0.00 in
21:07 47.3 °F 38.7 °F 30.01 in Calm   2.0 mph 72% 0.00 in
21:12 47.2 °F 38.7 °F 30.02 in Calm   2.0 mph 72% 0.00 in
21:17 47.3 °F 39.1 °F 30.02 in WSW 1.0 mph 2.0 mph 73% 0.00 in
21:22 47.4 °F 39.2 °F 30.02 in WSW 1.0 mph 2.0 mph 73% 0.00 in
21:27 47.6 °F 39.4 °F 30.02 in WSW 1.0 mph 1.0 mph 73% 0.00 in
21:33 47.4 °F 38.8 °F 30.02 in West 1.0 mph 2.0 mph 72% 0.00 in
21:38 47.3 °F 38.7 °F 30.02 in West 1.0 mph 2.0 mph 72% 0.00 in
21:43 46.9 °F 38.7 °F 30.03 in West 1.0 mph 1.0 mph 73% 0.00 in
21:48 46.7 °F 38.9 °F 30.03 in WSW 1.0 mph 2.0 mph 74% 0.00 in
21:53 46.5 °F 39.0 °F 30.03 in Calm   2.0 mph 75% 0.00 in
21:58 46.3 °F 39.5 °F 30.03 in Calm     77% 0.00 in
22:03 46.1 °F 39.3 °F 30.03 in Calm     77% 0.00 in
22:08 45.9 °F 39.1 °F 30.04 in Calm     77% 0.00 in
22:13 45.8 °F 39.3 °F 30.04 in WSW 1.0 mph 1.0 mph 78% 0.00 in
22:18 45.8 °F 39.7 °F 30.04 in Calm   1.0 mph 79% 0.00 in
22:23 45.6 °F 39.8 °F 30.05 in Calm     80% 0.00 in
22:28 45.4 °F 39.3 °F 30.05 in Calm     79% 0.00 in
22:33 45.4 °F 39.3 °F 30.05 in Calm   1.0 mph 79% 0.00 in
22:38 45.2 °F 39.1 °F 30.05 in Calm     79% 0.00 in
22:43 44.7 °F 38.6 °F 30.05 in Calm     79% 0.00 in
22:48 44.4 °F 38.6 °F 30.05 in Calm   1.0 mph 80% 0.00 in
22:53 44.5 °F 39.0 °F 30.05 in Calm     81% 0.00 in
22:58 44.4 °F 38.9 °F 30.05 in Calm     81% 0.00 in
23:03 44.1 °F 39.0 °F 30.05 in Calm     82% 0.00 in
23:08 43.8 °F 39.0 °F 30.06 in Calm     83% 0.00 in
23:13 43.5 °F 38.7 °F 30.06 in Calm     83% 0.00 in
23:18 42.9 °F 38.1 °F 30.06 in Calm     83% 0.00 in
23:23 42.7 °F 38.2 °F 30.06 in Calm     84% 0.00 in
23:28 42.6 °F 38.1 °F 30.06 in Calm     84% 0.00 in
23:33 42.4 °F 38.2 °F 30.06 in Calm     85% 0.00 in
23:38 42.2 °F 38.0 °F 30.06 in Calm   1.0 mph 85% 0.00 in
23:43 42.1 °F 37.9 °F 30.06 in Calm     85% 0.00 in
23:48 41.8 °F 37.9 °F 30.06 in Calm     86% 0.00 in
23:53 41.3 °F 37.4 °F 30.06 in Calm     86% 0.00 in
23:58 40.9 °F 37.3 °F 30.06 in Calm     87% 0.00 in
Compliments of Weather Underground